This demonstration page uses our WeatherBlox Daily Observations layout. Learn more.

Left ArrowRight Arrow

Hourly Observations for February 6, 2017

Temp ( °F °C ) Dew Point ( °F °C ) Humidity (%) Winds ( mph kmh ) Pressure ( in mb ) Visibility ( mi km ) Precip ( " mm )
12:53 am 00:53 Clear 25 -3.9 23 -5 92 92 N N/A 30.15 1021 8 13 N/A
1:53 am 01:53 Clear 24 -4.4 22 -5.6 91 91 N N/A 30.13 1020 8 13 N/A
2:53 am 02:53 Clear 24 -4.4 22 -5.6 91 91 N N/A 30.13 1020 8 13 N/A
3:53 am 03:53 Clear 23 -5 21 -6.1 92 92 N N/A 30.12 1020 7 11 N/A
4:53 am 04:53 Clear 22 -5.6 21 -6.1 96 96 N N/A 30.14 1021 8 13 N/A
5:53 am 05:53 Clear 22 -5.6 20 -6.7 92 92 N N/A 30.14 1021 7 11 N/A
6:53 am 06:53 Clear with Mist and Fog 23 -5 22 -5.6 96 96 N N/A 30.14 1021 6 10 N/A
7:53 am 07:53 Sunny with Mist and Fog 24 -4.4 22 -5.6 91 91 N N/A 30.14 1021 6 10 N/A
8:53 am 08:53 Sunny with Mist and Fog 29 -1.7 28 -2.2 96 96 N N/A 30.14 1021 5 8 N/A
9:53 am 09:53 Hazy 40 4.4 34 1.1 79 79 E 5 7 30.11 1020 6 10 N/A
10:53 am 10:53 Sunny 50 10 39 3.9 66 66 S 6 9 30.10 1019 9 14 N/A
11:53 am 11:53 Sunny 56 13.3 41 5 57 57 VRB 3 6 30.06 1018 10 16 N/A
12:53 pm 12:53 Sunny 58 14.4 41 5 53 53 ESE 6 9 30.01 1016 10 16 N/A
1:53 pm 13:53 Sunny 61 16.1 41 5 48 48 SSE 8 13 29.97 1015 10 16 N/A
2:53 pm 14:53 Sunny 63 17.2 40 4.4 43 43 SSW 12 19 29.95 1014 10 16 N/A
3:53 pm 15:53 Cloudy 58 14.4 42 5.6 56 56 SSW 8 13 29.95 1014 10 16 N/A
4:07 pm 16:07 Cloudy 58 14.4 43 6.1 58 58 SSW 8 13 29.94 1014 10 16 N/A
4:31 pm 16:31 Cloudy 58 14.4 43 6.1 58 58 VRB 3 6 29.91 1013 10 16 N/A
4:53 pm 16:53 Cloudy 57 13.9 44 6.7 62 62 S 5 7 29.92 1013 10 16 N/A
5:11 pm 17:11 Cloudy 57 13.9 45 7.2 64 64 VRB 3 6 29.91 1013 8 13 N/A
5:53 pm 17:53 Cloudy with Light Rain 53 11.7 50 10 89 89 SSW 5 7 29.91 1013 9 14 0.02 0.51
6:53 pm 18:53 Cloudy with Light Rain 52 11.1 51 10.6 97 97 N N/A 29.91 1013 10 16 0.04 1.02
7:23 pm 19:23 Cloudy 53 11.7 50 10 89 89 S 5 7 29.91 1013 10 16 N/A
7:53 pm 19:53 Cloudy 53 11.7 51 10.6 93 93 VRB 5 7 29.89 1012 10 16 N/A
8:53 pm 20:53 Cloudy 55 12.8 52 11.1 90 90 SSW 8 13 29.87 1012 10 16 N/A
9:53 pm 21:53 Cloudy 55 12.8 53 11.7 93 93 S 7 11 29.85 1011 10 16 N/A
10:03 pm 22:03 Cloudy 55 12.8 53 11.7 93 93 VRB 6 9 29.83 1010 10 16 N/A
10:53 pm 22:53 Cloudy 55 12.8 54 12.2 96 96 S 7 11 29.82 1010 9 14 N/A
11:20 pm 23:20 Cloudy with Light Thunderstorms 56 13.3 54 12.2 93 93 S 7 11 29.80 1009 8 13 N/A
11:44 pm 23:44 Cloudy with Nearby Thunderstorms 55 12.8 55 12.8 100 100 WSW 7 11 29.80 1009 2 3 0.11 2.79
11:51 pm 23:51 Cloudy with Nearby Thunderstorms 55 13 55 13 100 100 SSW 7 11 29.80 1009 3 5 0.12 3.05
11:53 pm 23:53 Cloudy with Nearby Thunderstorms 56 13.3 55 12.8 97 97 SSW 8 13 29.80 1009 4 6 0.12 3.05

Powered by AerisWeather